Theta_e
313 315 317 317 315 316 318 318 316 316 316 316 317 318 317 318 317 317 320 318 319 319 318 317 316 314 314 313 314 313 315 312 308 309 311 314 322 322 326 328 326 327 323
312 312 316 316 316 315 317 319 318 316 317 319 319 316 316 317 315 313 317 316 317 316 315 317 317 317 319 315 312 313 316 316 313 306 312 313 319 322 323 323 322 320 320
311 310 313 317 316 318 317 319 315 317 316 316 318 317 316 314 311 314 317 316 316 317 317 317 316 319 318 318 320 321 322 323 319 313 311 315 316 319 320 321 320 321 320
309 309 310 315 315 312 316 320 317 317 315 319 318 318 315 313 309 314 318 318 317 318 318 319 319 318 319 321 321 320 320 317 318 315 314 315 316 319 318 316 316 319 319
311 309 310 314 317 314 316 321 319 319 319 319 316 319 317 313 311 314 313 313 319 319 319 317 317 315 314 314 319 320 322 316 314 313 313 314 315 316 316 319 319 319 321
312 309 312 312 316 313 317 318 319 315 319 319 317 314 318 312 304 305 307 311 312 317 317 318 317 315 313 312 311 311 316 321 318 315 314 315 319 320 319 318 318 315 311
309 310 311 312 315 315 316 317 317 317 320 319 319 313 317 318 303 302 304 306 310 312 314 317 318 316 315 318 312 311 310 310 312 322 319 318 318 320 321 319 318 315 314
312 312 313 313 314 314 316 317 320 315 316 321 319 316 314 317 304 301 302 311 311 312 315 315 318 320 313 316 318 318 318 318 320 318 320 321 322 323 321 319 317 317 317
310 312 312 313 313 315 315 316 320 322 318 319 319 318 315 316 304 301 305 315 311 311 312 313 315 316 304 304 313 314 315 314 304 308 307 305 305 304 311 315 310 309 309
310 311 314 315 315 315 316 317 319 319 321 318 314 319 314 319 306 301 305 315 315 314 315 315 307 313 300 301 314 313 311 311 312 312 316 310 308 311 304 317 316 310 312
313 314 314 315 312 314 316 319 315 317 317 320 319 320 321 318 318 301 300 316 314 313 313 313 316 301 298 298 302 316 312 314 306 313 313 314 315 316 315 315 318 315 312
313 314 312 311 313 313 314 317 314 314 317 318 317 318 318 320 308 305 299 299 309 315 314 316 313 298 297 296 300 298 297 300 313 312 312 312 313 317 318 317 319 318 318
312 311 313 314 314 313 311 312 314 317 311 317 318 315 314 317 316 302 299 298 299 312 316 310 299 297 297 298 296 296 294 310 311 310 310 311 312 316 317 317 320 321 320
310 311 311 310 311 313 314 313 312 314 315 316 314 314 315 316 317 317 316 313 301 305 305 310 305 302 299 303 304 305 311 313 312 312 312 313 315 313 312 314 311 312 313
305 310 310 308 309 312 313 311 309 312 310 313 317 312 316 314 315 309 311 315 316 312 312 314 312 312 310 310 310 310 312 313 312 313 313 313 312 312 313 314 313 311 309
303 306 305 305 306 308 310 311 301 301 299 296 296 302 316 305 299 297 295 295 296 295 310 313 312 312 311 310 308 306 308 307 310 310 311 310 310 311 312 313 312 310 307
304 305 303 302 305 306 308 308 307 307 302 300 297 296 295 299 295 294 294 293 292 295 311 312 312 312 311 310 308 306 306 308 310 308 309 312 314 314 311 312 311 308 307
305 299 304 302 304 304 307 308 309 308 306 306 304 303 299 294 295 293 293 294 305 301 312 312 312 312 312 310 307 307 307 308 309 309 310 313 315 313 311 309 308 307 307
300 301 304 304 302 303 307 309 309 308 308 308 308 305 303 292 292 292 291 311 314 312 309 312 312 313 311 309 308 308 309 308 310 311 311 312 313 310 308 307 306 296 299
302 298 298 303 303 303 302 303 304 305 306 305 305 303 305 304 312 312 303 305 310 311 310 312 312 311 310 309 309 309 309 309 310 311 312 312 311 310 307 306 305 304 305
300 300 295 301 299 299 301 301 300 300 301 303 303 303 288 300 305 310 313 309 310 308 310 311 311 310 310 311 310 310 310 310 311 312 311 311 310 308 308 306 306 305 304
301 300 299 298 298 297 297 297 297 297 297 297 299 301 290 302 304 308 311 310 315 315 310 311 312 313 313 312 312 312 311 311 312 312 311 310 309 308 308 306 305 305 304
301 299 297 296 296 294 297 298 298 297 297 298 298 300 302 302 302 304 306 312 314 316 314 315 314 314 315 314 314 314 313 313 313 313 312 310 309 309 308 307 306 305 304
300 299 296 295 295 296 297 296 296 293 295 297 298 300 300 301 302 304 306 308 312 312 315 317 316 315 316 316 316 316 315 315 315 314 314 311 310 307 308 308 307 306 304
300 298 298 296 296 296 296 295 294 294 294 294 295 296 297 299 301 304 306 310 311 310 314 315 318 318 318 318 318 317 307 290 307 301 313 312 311 311 309 308 307 305 305
300 299 299 299 298 298 298 296 295 294 293 293 294 295 296 297 298 299 301 303 304 309 314 316 316 316 319 318 317 303 291 289 298 288 307 310 308 308 308 307 306 304 304
Wind_Speed
6 6 5 6 6 7 8 6 5 5 6 5 7 7 6 7 7 7 6 6 6 5 6 6 6 5 3 2 3 5 5 5 6 2 2 3 6 8 9 10 11 10 9
8 8 7 6 4 7 10 9 7 7 7 6 6 6 6 5 5 6 6 6 6 7 8 8 9 5 6 4 2 4 7 7 8 8 3 3 7 8 9 9 7 6 8
6 7 9 8 6 10 10 10 6 6 5 6 6 6 5 5 3 5 4 5 5 6 7 8 9 8 7 5 5 7 7 8 9 12 2 1 6 7 8 7 6 6 5
3 5 9 11 7 5 11 12 8 4 4 6 5 5 4 2 1 4 4 3 4 5 5 6 8 9 8 7 8 8 7 8 8 9 9 8 8 5 6 7 7 5 6
6 4 9 10 10 5 11 11 6 6 5 6 4 5 5 4 2 3 3 6 4 3 4 5 7 7 8 8 5 4 6 6 6 6 6 6 7 7 7 4 4 4 5
7 6 9 10 11 5 11 9 5 5 6 6 5 5 5 4 2 2 4 2 4 5 3 3 4 4 6 9 6 8 7 4 5 3 4 5 5 5 4 4 3 4 5
6 6 9 11 11 6 10 12 7 4 6 6 5 4 6 5 5 4 3 2 3 3 3 2 2 3 3 5 7 7 8 8 7 3 5 3 5 4 4 5 4 2 1
9 10 8 9 11 8 6 10 9 5 5 7 5 6 5 6 6 7 5 3 3 3 3 3 3 1 4 4 5 5 5 5 4 3 4 4 4 5 3 2 2 2 2
11 10 7 7 9 10 8 9 7 8 7 6 5 6 7 8 9 8 6 4 2 3 2 1 3 4 2 3 3 3 4 4 4 1 3 3 3 2 1 3 4 4 4
13 10 7 8 10 10 8 9 8 8 7 5 5 8 7 8 8 9 8 6 5 4 4 1 1 6 8 6 2 2 2 2 1 3 5 5 4 5 4 5 2 4 2
14 10 9 5 5 7 9 7 4 8 7 7 8 7 7 8 8 9 9 8 7 5 5 3 2 4 6 4 1 1 2 1 2 2 3 4 4 5 6 7 6 5 4
13 12 8 6 5 3 6 10 4 7 9 9 9 7 6 6 9 9 11 14 7 6 6 3 3 6 7 6 5 4 2 3 3 3 3 3 3 3 3 5 7 7 5
12 11 11 11 8 4 3 7 8 7 8 7 7 8 6 4 4 8 8 11 11 8 7 1 8 7 7 7 8 4 5 5 4 5 5 3 3 2 1 3 4 6 7
12 10 9 9 10 7 4 3 4 6 6 7 7 6 7 6 5 4 3 5 8 9 4 6 3 3 3 2 4 7 6 5 6 6 5 4 3 4 5 4 4 4 5
11 11 9 8 9 9 7 4 2 6 5 7 7 5 8 8 6 1 1 3 5 6 7 6 6 7 7 6 5 6 6 6 7 7 6 6 6 6 7 5 5 5 6
10 7 7 8 8 7 7 7 3 4 11 7 10 7 7 9 3 3 3 2 3 11 6 7 8 8 8 6 6 6 7 7 7 7 7 7 8 8 7 6 6 6 6
11 9 7 7 8 8 7 6 6 2 6 11 9 10 10 13 5 3 2 5 7 9 7 7 7 7 7 6 6 6 7 7 7 8 8 7 6 6 5 6 6 6 6
12 9 7 6 8 8 7 5 6 6 4 4 7 7 4 6 4 1 5 9 5 6 8 8 8 7 7 6 6 6 6 6 7 7 7 6 6 5 5 5 6 7 7
9 8 10 7 4 7 7 6 6 6 6 4 4 6 2 3 3 4 7 7 7 7 8 8 7 6 6 6 6 6 6 6 5 6 6 6 6 6 5 5 5 3 3
9 9 9 9 7 7 7 7 7 7 7 6 5 6 7 5 5 5 4 5 6 6 5 6 6 6 7 6 6 6 6 7 7 7 7 6 6 5 5 4 4 5 6
7 7 10 6 6 7 7 7 7 8 8 8 7 6 5 5 6 5 4 5 7 5 6 6 6 7 8 7 7 7 7 7 7 7 7 7 6 6 6 5 5 6 6
8 9 7 9 8 8 7 7 6 7 8 8 8 7 6 6 6 6 5 5 7 5 5 7 6 7 7 7 8 9 9 9 8 7 8 7 7 8 7 7 7 7 7
7 9 10 8 8 7 6 8 7 7 8 8 8 7 7 7 6 7 7 6 6 6 5 5 6 8 7 6 7 8 9 10 9 7 8 8 8 8 8 8 9 8 8
8 8 7 6 7 8 7 7 7 9 8 8 8 8 8 8 8 8 7 7 6 5 6 7 7 8 7 7 6 7 9 10 8 8 11 8 8 9 9 9 9 10 9
6 7 8 7 7 7 7 7 8 8 8 8 8 8 8 8 9 8 8 6 6 6 9 7 7 7 10 11 11 12 7 4 10 6 7 10 11 11 10 9 9 10 10
4 4 6 7 6 7 7 7 6 7 7 7 7 7 7 8 7 7 7 7 7 6 8 7 7 10 11 8 10 8 4 6 8 8 7 8 8 9 9 11 13 9 10
Wind_Direction
260 264 255 280 270 276 276 270 266 276 279 302 316 301 313 330 348 343 349 339 347 352 1 358 8 3 340 16 24 80 99 91 100 86 64 35 106 108 122 122 144 140 138
280 282 264 267 270 264 266 275 275 273 277 292 294 295 310 330 344 346 354 354 1 18 13 13 17 28 90 112 80 114 128 132 114 91 58 65 95 105 115 126 140 142 151
269 282 281 267 250 264 278 271 280 277 265 282 278 283 307 331 341 338 347 1 32 31 24 25 21 25 69 78 89 111 126 122 121 119 93 195 117 125 124 132 152 148 184
248 271 272 278 253 233 275 281 259 251 242 261 258 271 285 269 307 315 339 17 353 22 25 26 27 32 26 44 82 90 104 113 113 129 141 132 132 126 149 154 162 182 179
297 279 272 279 286 257 268 276 275 255 234 255 246 245 258 262 229 329 348 331 342 18 28 35 48 43 49 29 36 74 106 117 117 129 130 139 140 159 157 144 147 144 150
302 290 301 289 283 231 276 264 231 252 235 231 234 256 231 251 203 225 297 340 341 326 40 27 50 39 69 58 61 50 30 86 111 127 124 126 133 133 152 163 149 190 170
267 275 274 278 282 267 261 261 242 261 275 226 230 225 246 247 200 237 219 338 313 313 297 251 151 80 28 56 92 116 81 59 39 65 126 140 150 150 153 176 167 189 197
286 262 261 276 282 275 277 274 265 204 235 248 225 216 223 250 213 223 195 262 302 316 319 313 4 65 62 68 82 84 85 78 66 74 80 126 115 146 155 105 136 137 174
334 297 268 285 284 286 275 252 271 227 202 226 236 231 218 240 204 224 224 237 254 282 279 348 227 202 144 212 123 131 133 118 110 104 51 47 74 34 3 170 178 206 173
339 324 300 297 294 292 271 260 270 256 262 187 238 234 235 252 190 205 204 245 245 253 248 297 214 194 174 203 128 132 142 113 166 171 170 172 190 177 207 253 207 224 221
340 339 318 303 277 291 311 277 226 254 256 247 235 227 233 239 242 196 194 234 243 238 244 230 139 139 175 195 221 143 34 136 162 225 217 211 217 213 210 211 227 256 235
341 344 354 342 318 330 356 310 238 256 245 254 237 236 240 250 227 220 199 218 216 237 245 230 142 158 183 194 215 103 150 259 239 234 232 221 226 188 173 203 218 237 253
335 343 339 339 342 322 331 319 310 240 244 250 233 253 241 233 253 207 218 209 214 223 234 168 119 163 178 197 225 205 197 231 244 238 240 247 231 135 182 199 208 221 238
333 336 344 344 337 333 319 309 317 293 274 235 234 238 262 237 241 237 193 185 220 220 199 209 200 237 253 280 181 199 230 229 236 242 246 242 223 217 227 223 244 220 246
331 328 340 339 341 333 333 317 336 327 307 288 243 231 236 254 241 263 255 205 212 199 179 210 213 214 216 215 220 232 228 215 222 233 242 244 240 241 239 223 244 246 258
330 333 340 327 333 325 326 326 211 275 306 293 272 267 280 262 284 207 217 231 234 147 203 218 224 230 233 238 242 244 228 224 236 240 245 249 254 248 239 218 239 242 256
329 330 331 328 326 328 326 319 321 303 307 324 283 245 232 269 281 344 285 222 194 164 230 223 229 224 231 233 238 243 247 237 238 238 238 250 244 233 206 235 231 238 239
327 309 318 325 331 319 315 323 313 324 333 319 302 315 261 250 285 243 178 162 160 228 240 231 227 225 225 231 235 241 245 240 233 238 238 242 226 227 213 234 240 247 248
337 336 332 326 313 312 315 326 314 327 350 357 348 320 342 68 50 76 172 245 248 222 221 227 235 231 224 227 234 238 242 244 244 240 238 229 209 209 217 249 262 278 280
360 5 345 344 343 358 346 347 347 342 341 345 350 359 356 340 272 253 208 238 264 251 256 239 232 227 227 229 226 227 230 230 232 232 225 208 202 218 237 240 251 245 212
344 360 351 357 358 353 352 357 351 343 339 338 339 343 321 320 303 296 268 242 246 244 264 255 248 229 231 225 223 219 222 229 227 230 217 204 206 216 227 233 247 235 248
344 358 2 0 358 358 351 346 346 336 329 327 325 318 308 312 313 316 283 272 264 266 254 250 246 242 236 235 227 225 224 225 223 222 221 216 211 220 227 228 235 244 249
341 354 4 0 350 349 346 347 342 339 330 326 318 317 325 322 319 304 305 304 287 285 270 259 251 252 241 232 242 246 238 229 225 218 218 216 218 223 223 231 236 242 243
3 357 348 350 338 346 355 344 343 340 333 324 327 328 327 324 312 303 290 282 287 286 291 266 263 267 252 238 246 247 248 248 234 217 217 219 222 212 230 228 234 238 246
359 347 349 349 337 351 352 356 354 343 340 337 329 327 324 322 327 304 289 276 290 289 272 268 271 269 263 253 256 263 273 225 239 245 225 233 236 232 219 229 227 230 233
298 337 343 341 353 338 339 347 341 338 342 333 327 321 325 329 332 330 345 341 333 303 283 277 276 285 285 280 271 282 285 239 233 233 235 239 236 239 240 221 225 227 230